TimePDT,TemperatureF,Dew PointF,Humidity,Sea Level PressureIn,VisibilityMPH,Wind Direction,Wind SpeedMPH,Gust SpeedMPH,PrecipitationIn,Events,Conditions,WindDirDegrees,DateUTC
12:15 AM,32.0,24.8,75,30.03,10.0,Calm,Calm,-,N/A,,Clear,0,2013-04-12 07:15:00
12:35 AM,32.0,24.8,75,30.04,10.0,North,8.1,-,N/A,,Clear,10,2013-04-12 07:35:00
12:55 AM,28.4,24.8,86,30.04,10.0,South,5.8,-,N/A,,Clear,170,2013-04-12 07:55:00
1:15 AM,28.4,24.8,86,30.04,10.0,SW,4.6,-,N/A,,Clear,230,2013-04-12 08:15:00
1:35 AM,28.4,24.8,86,30.04,10.0,Calm,Calm,-,N/A,,Clear,0,2013-04-12 08:35:00
1:55 AM,28.4,24.8,86,30.04,10.0,Calm,Calm,-,N/A,,Clear,0,2013-04-12 08:55:00
2:15 AM,28.4,24.8,86,30.04,10.0,SW,3.5,-,N/A,,Clear,220,2013-04-12 09:15:00
2:35 AM,26.6,24.8,93,30.03,10.0,SSW,3.5,-,N/A,,Clear,200,2013-04-12 09:35:00
2:55 AM,28.4,24.8,86,30.03,10.0,Calm,Calm,-,N/A,,Clear,0,2013-04-12 09:55:00
3:15 AM,28.4,24.8,86,30.03,10.0,Calm,Calm,-,N/A,,Clear,0,2013-04-12 10:15:00
3:35 AM,26.6,23.0,86,30.03,10.0,ESE,3.5,-,N/A,,Clear,110,2013-04-12 10:35:00
3:55 AM,24.8,23.0,93,30.03,10.0,Calm,Calm,-,N/A,,Clear,0,2013-04-12 10:55:00
4:15 AM,24.8,24.8,100,30.03,10.0,Calm,Calm,-,N/A,,Clear,0,2013-04-12 11:15:00
4:35 AM,24.8,23.0,93,30.03,10.0,Calm,Calm,-,N/A,,Clear,0,2013-04-12 11:35:00
4:55 AM,24.8,24.8,100,30.03,10.0,Calm,Calm,-,N/A,,Clear,0,2013-04-12 11:55:00
5:15 AM,24.8,23.0,93,30.03,10.0,Calm,Calm,-,N/A,,Clear,0,2013-04-12 12:15:00
5:35 AM,24.8,24.8,100,30.03,10.0,Calm,Calm,-,N/A,,Clear,0,2013-04-12 12:35:00
5:55 AM,26.6,24.8,93,30.04,10.0,Calm,Calm,-,N/A,,Clear,0,2013-04-12 12:55:00
6:15 AM,23.0,21.2,93,30.05,10.0,Calm,Calm,-,N/A,,Clear,0,2013-04-12 13:15:00
6:35 AM,23.0,23.0,100,30.06,10.0,Calm,Calm,-,N/A,,Clear,0,2013-04-12 13:35:00
8:45 AM,35.6,26.6,70,30.08,10.0,Calm,Calm,-,N/A,,Clear,0,2013-04-12 15:45:00
9:50 AM,42.8,26.6,53,30.06,10.0,Calm,Calm,-,N/A,,Clear,0,2013-04-12 16:50:00
10:50 AM,50.0,24.8,37,30.05,10.0,Calm,Calm,-,N/A,,Clear,0,2013-04-12 17:50:00
11:45 AM,55.4,23.0,29,30.04,10.0,Calm,Calm,-,N/A,,Clear,0,2013-04-12 18:45:00
12:50 PM,59.0,23.0,25,30.01,10.0,South,4.6,-,N/A,,Clear,170,2013-04-12 19:50:00
1:50 PM,60.8,17.6,19,29.99,10.0,Calm,Calm,-,N/A,,Scattered Clouds,0,2013-04-12 20:50:00
3:45 PM,64.4,24.8,22,29.96,10.0,WSW,11.5,17.3,N/A,,Scattered Clouds,250,2013-04-12 22:45:00
4:50 PM,62.6,26.6,26,29.96,10.0,West,11.5,20.7,N/A,,Scattered Clouds,270,2013-04-12 23:50:00
5:50 PM,59.0,32.0,36,29.97,10.0,WSW,17.3,20.7,N/A,,Scattered Clouds,250,2013-04-13 00:50:00
5:55 PM,59.0,32.0,36,29.97,10.0,West,15.0,20.7,N/A,,Clear,260,2013-04-13 00:55:00
6:15 PM,57.2,32.0,38,29.97,10.0,West,13.8,19.6,N/A,,Clear,270,2013-04-13 01:15:00
6:35 PM,57.2,32.0,38,29.97,10.0,West,12.7,20.7,N/A,,Clear,270,2013-04-13 01:35:00
6:55 PM,55.4,32.0,41,29.97,10.0,WSW,8.1,-,N/A,,Clear,250,2013-04-13 01:55:00
7:15 PM,53.6,32.0,44,29.97,10.0,WSW,8.1,-,N/A,,Clear,250,2013-04-13 02:15:00
7:35 PM,51.8,32.0,47,29.97,10.0,SSW,3.5,-,N/A,,Clear,210,2013-04-13 02:35:00
7:55 PM,50.0,28.4,43,29.98,10.0,Calm,Calm,-,N/A,,Clear,0,2013-04-13 02:55:00
8:15 PM,48.2,30.2,50,29.98,10.0,West,8.1,-,N/A,,Clear,270,2013-04-13 03:15:00
8:35 PM,46.4,32.0,57,29.99,10.0,Calm,Calm,-,N/A,,Clear,0,2013-04-13 03:35:00
8:55 PM,42.8,32.0,66,30.00,10.0,SE,8.1,-,N/A,,Clear,130,2013-04-13 03:55:00
9:15 PM,39.2,32.0,75,30.01,10.0,Calm,Calm,-,N/A,,Clear,0,2013-04-13 04:15:00
9:35 PM,41.0,32.0,70,30.01,10.0,SSE,5.8,-,N/A,,Clear,160,2013-04-13 04:35:00
9:55 PM,39.2,30.2,70,30.02,10.0,Calm,Calm,-,N/A,,Clear,0,2013-04-13 04:55:00
10:15 PM,39.2,32.0,75,30.02,10.0,Calm,Calm,-,N/A,,Clear,0,2013-04-13 05:15:00
10:35 PM,35.6,28.4,75,30.02,10.0,Calm,Calm,-,N/A,,Clear,0,2013-04-13 05:35:00
10:55 PM,35.6,24.8,65,30.02,10.0,SSE,5.8,-,N/A,,Clear,150,2013-04-13 05:55:00
11:15 PM,35.6,28.4,75,30.02,10.0,Calm,Calm,-,N/A,,Clear,0,2013-04-13 06:15:00
11:35 PM,35.6,28.4,75,30.02,10.0,Calm,Calm,-,N/A,,Clear,0,2013-04-13 06:35:00
11:55 PM,35.6,26.6,70,30.02,10.0,South,3.5,-,N/A,,Clear,170,2013-04-13 06:55:00